Regional Weather Roundup
Issued by NWS

Home | Current Version | Previous Version | Text Only | Print | Product List | Glossary On
Versions: 1 2 3 4 5 6 7 8 9 10 11 12 13 14 15 16 17 18 19 20 21 22 23 24 25 26 27 28 29 30 31 32 33 34 35 36 37 38 39 40 41 42 43 44 45 46 47 48 49 50
000
ASUS46 KSEW 040010
RWRWA

WASHINGTON REGIONAL WEATHER ROUNDUP
NATIONAL WEATHER SERVICE SEATTLE WA
500 PM PDT THU SEP 03 2015

NOTE:"FAIR" INDICATES FEW OR NO CLOUDS BELOW 12,000 FEET WITH NO
SIGNIFICANT WEATHER AND/OR OBSTRUCTIONS TO VISIBILITY.

WAZ505-507>509-040100-
SEATTLE, TACOMA, EVERETT, AND VICINITY

CITY           SKY/WX    TMP DP  RH WIND       PRES   REMARKS
EVERETT        CLOUDY    60  44  55 SW9       29.99S
6HR MIN TEMP:  56; 6HR MAX TEMP:  63; 6HR PCP: TRACE;

BOEING FIELD   PTSUNNY   65  42  43 S9G25     29.98S
6HR MIN TEMP:  62; 6HR MAX TEMP:  69;

RENTON         MOSUNNY   66  43  43 S9        29.97F
6HR MIN TEMP:  61; 6HR MAX TEMP:  68;

SEATAC AIRPORT PTSUNNY   63  44  50 SW10      29.99S
6HR MIN TEMP:  59; 6HR MAX TEMP:  65;

JBLM-MCCHORD   SUNNY     63  45  51 SW7       29.98F
6HR MIN TEMP:  55; 6HR MAX TEMP:  65; 6HR PCP:  0.09;

PUYALLUP       FAIR      64  46  52 VRB6      29.99F
BREMERTON      PTSUNNY   61  46  59 S9        30.00F
6HR MIN TEMP:  55; 6HR MAX TEMP:  66;

JBLM-FT LEWIS  PTSUNNY   62  45  52 S7        29.98S
6HR MIN TEMP:  54; 6HR MAX TEMP:  65; 6HR PCP:  0.13;

TACOMA NARROWS PTSUNNY   61  46  57 S9        29.98F
6HR MIN TEMP:  54; 6HR MAX TEMP:  63; 6HR PCP:  0.04;

$$

WAZ001-503-506-510-514-515-040100-
NORTH INTERIOR

CITY           SKY/WX    TMP DP  RH WIND       PRES   REMARKS
BELLINGHAM     CLOUDY    60  47  61 S5        29.99S
6HR MIN TEMP:  52; 6HR MAX TEMP:  62; 6HR PCP:  0.10;

FRIDAY HARBOR  CLOUDY    59  47  64 VRB3      30.01R
6HR MIN TEMP:  53; 6HR MAX TEMP:  62;

EASTSOUND      LGT RAIN  54  52  94 CALM      29.99R
PORT ANGELES   LGT RAIN  54  46  74 W7        30.01R
6HR MIN TEMP:  54; 6HR MAX TEMP:  60; 6HR PCP: TRACE;

PORT TOWNSEND  CLOUDY    61  46  59 CALM      29.99R
NAS WHIDBEY    CLOUDY    62  46  55 NW5       30.03S
6HR MIN TEMP:  58; 6HR MAX TEMP:  64; 6HR PCP: TRACE;

ARLINGTON      CLOUDY    63  46  55 NE3       29.98R
6HR MIN TEMP:  59; 6HR MAX TEMP:  66;

BURLINGTON     PTSUNNY   61  48  63 NE7       29.99S
$$

WAZ020-022-039-040-504-511-512-040100-
SOUTHWEST INTERIOR

CITY           SKY/WX    TMP DP  RH WIND       PRES   REMARKS
SHELTON        PTSUNNY   61  48  62 SW13      29.96F
6HR MIN TEMP:  54; 6HR MAX TEMP:  65; 6HR PCP:  0.01;

OLYMPIA        PTSUNNY   61  47  59 S8        29.99S
6HR MIN TEMP:  54; 6HR MAX TEMP:  65; 6HR PCP:  0.10;

CHEHALIS       CLOUDY    63  50  63 NW8       29.99S
KELSO          NOT AVBL
VANCOUVER      LGT RAIN  62  48  60 NW9       30.00S
6HR MIN TEMP:  62; 6HR MAX TEMP:  67; 6HR PCP: TRACE;

SCAPPOOSE, OR  LGT RAIN  58  53  84 NW5       30.01R
6HR MIN TEMP:  58; 6HR MAX TEMP:  68; 6HR PCP:  0.10;

PORTLAND, OR   LGT RAIN  63  49  60 W13       30.01R
6HR MIN TEMP:  61; 6HR MAX TEMP:  68; 6HR PCP: TRACE;

$$

WAZ021-516-517-040100-
WASHINGTON COAST

CITY           SKY/WX    TMP DP  RH WIND       PRES   REMARKS
FORKS          MOSUNNY   63  48  58 W10       29.99S
6HR MIN TEMP:  56; 6HR MAX TEMP:  65;

HOQUIAM        SUNNY     63  51  65 SW14      30.00S
6HR MIN TEMP:  53; 6HR MAX TEMP:  65;

ASTORIA, OR    PTSUNNY   64  51  62 SW9       30.00F
6HR MIN TEMP:  61; 6HR MAX TEMP:  66;

$$

WAZ019-023-024-040-518-519-040100-
CASCADE MOUNTAINS AND COLUMBIA GORGE

CITY           SKY/WX    TMP DP  RH WIND       PRES   REMARKS
TROUTDALE, OR  CLOUDY    64  47  53 CALM      30.00S
6HR MIN TEMP:  61; 6HR MAX TEMP:  70; 6HR PCP: TRACE;

THE DALLES, OR SUNNY     73  34  23 NW16      29.91S
6HR MIN TEMP:  66; 6HR MAX TEMP:  73;

$$

WAZ026-027-041>044-520-521-040100-
EAST SLOPES

CITY           SKY/WX    TMP DP  RH WIND       PRES   REMARKS
OMAK           PTSUNNY   71  23  16 SW10G18   29.86S
6HR MIN TEMP:  64; 6HR MAX TEMP:  72;

WENATCHEE      LGT RAIN  66  34  30 W8G22     29.89S
6HR MIN TEMP:  64; 6HR MAX TEMP:  73; 6HR PCP: TRACE;

ELLENSBURG     PTSUNNY   68  33  27 NW23G30   29.90S
6HR MIN TEMP:  62; 6HR MAX TEMP:  70;

YAKIMA         MOSUNNY   71  29  21 E3        29.89F
6HR MIN TEMP:  64; 6HR MAX TEMP:  74;

$$

WAZ028-034-035-040100-
COLUMBIA BASIN

CITY           SKY/WX    TMP DP  RH WIND       PRES   REMARKS
EPHRATA        SUNNY     71  32  23 SW12G17   29.88S
6HR MIN TEMP:  64; 6HR MAX TEMP:  71;

MOSES LAKE     SUNNY     71  31  22 SW9       29.89F
6HR MIN TEMP:  63; 6HR MAX TEMP:  72;

PASCO          SUNNY     72  33  24 VRB3      29.90F
6HR MIN TEMP:  65; 6HR MAX TEMP:  74;

HERMISTON, OR  SUNNY     72  27  18 W8        29.89F
6HR MIN TEMP:  64; 6HR MAX TEMP:  74;

$$

WAZ036>038-040100-
NORTHEAST WASHINGTON

CITY           SKY/WX    TMP DP  RH WIND       PRES   REMARKS
SPOKANE GEIGER MOSUNNY   65  27  23 S15G21    29.91F
6HR MIN TEMP:  58; 6HR MAX TEMP:  65;

SPOKANE FELTS  MOSUNNY   66  31  27 SW10      29.92S
6HR MIN TEMP:  59; 6HR MAX TEMP:  69;

FAIRCHILD AFB  MOSUNNY   64  27  24 S8        29.91S
6HR MIN TEMP:  59; 6HR MAX TEMP:  65;

COEURDALENE,ID MOSUNNY   63  30  29 SW7       29.91S
6HR MIN TEMP:  59; 6HR MAX TEMP:  66;

DEER PARK      PTSUNNY   64  26  23 S12       29.91S
6HR MIN TEMP:  59; 6HR MAX TEMP:  67;

$$

WAZ029>033-040100-
SOUTHEAST WASHINGTON

CITY           SKY/WX    TMP DP  RH WIND       PRES   REMARKS
PULLMAN        PTSUNNY   61  34  36 S7        29.96S
6HR MIN TEMP:  56; 6HR MAX TEMP:  64;

LEWISTON, ID   MOSUNNY   66  39  37 E6        29.93F
6HR MIN TEMP:  57; 6HR MAX TEMP:  67;

WALLA WALLA    SUNNY     69  31  24 S5        29.91F
6HR MIN TEMP:  64; 6HR MAX TEMP:  71;

PENDLETON, OR  MOSUNNY   69  25  19 NW13G23   29.91S
6HR MIN TEMP:  62; 6HR MAX TEMP:  70;

$$



USA.gov is the U.S. government's official web portal to all federal, state and local government web resources and services.